Location: Rounton
(54.4000°N, 1.3500°W)
Time: 04:55:39
(UTC+00:00)

Vanguard 1 - Pass Details

Date: 05 December 2021
Orbit: 652 x 3830 km, 34.2° (Epoch: 17 January)

Event Time Altitude Azimuth Distance (km) Brightness Sun altitude
Exits shadow 01:23:05 30° 133° (SE) 4,935 13.4 -54.0°
Drops below altitude 10° 01:31:40 10° 111° (ESE) 5,864 14.1 -53.3°
Sets 01:35:52 0° 104° (ESE) 6,516 14.5 -52.9°
